Location: Unspecified
(0.0000°N, 0.0000°E)
Time: 14:44:06
(UTC+00:00)

deb Midas V - Pass Details

Date: 20 April 2026
Orbit: 2771 x 3389 km, 86.6° (Epoch: 16 May)

Event Time Altitude Azimuth Distance (km) Brightness Sun altitude
Rises 17:51:09 0° 4° (N) 7,361 ? 1.9°
Reaches altitude 10° 17:55:26 10° 6° (N) 6,302 ? 0.8°
Maximum altitude 18:12:54 80° 93° (E) 3,210 ? -3.4°
Drops below altitude 10° 18:28:53 10° 177° (S) 5,826 ? -7.3°
Sets 18:32:37 0° 178° (S) 6,791 ? -8.3°
